Station BLIF1 - 8720233 - Blount Island Command, St Johns River, FL Image indicating link to RSS feed of recent meteorological observations for station BLIF1


Conditions at BLIF1 as of
(5:30 am EDT)
0930 GMT on 04/16/2024:
     

Click on the graph icon in the table below to see a time series plot of the last five days of that observation.

5-day plot - Wind Direction Wind Direction (WDIR): S ( 190 deg true )
5-day plot - Wind Speed Wind Speed (WSPD): 5.1 kts
5-day plot - Wind Gust Wind Gust (GST): 6.0 kts
5-day plot - Atmospheric Pressure Atmospheric Pressure (PRES):30.12 in
5-day plot - Air Temperature Air Temperature (ATMP): 65.8 °F
5-day plot - Dew Point Dew Point (DEWP): 59.0 °F
5-day plot - Visibility Visibility (VIS): 5.9 nmi
5-day plot - Wind Speed at 10 Meters Wind Speed at 10 meters (WSPD10M): 5.8 kts
5-day plot - Wind Speed at 20 Meters Wind Speed at 20 meters (WSPD20M): 5.8 kts
5-day plot -  Wind Speed, Wind Gust and Atmospheric Pressure Combined plot of Wind Speed, Gust, and Air Pressure
NOS Water Level Observation Network Water Level
Previous observations
TIME
(EDT)
5-day plot - Wind Direction
WDIR
 
5-day plot - Wind Speed
WSPD
kts
5-day plot - Wind Gust
GST
kts
5-day plot - Wave Height
WVHT
ft
5-day plot - Dominant Wave Period
DPD
sec
5-day plot - Average Wave Period
APD
sec
5-day plot - Mean Wave Direction
MWD
 
5-day plot - Atmospheric Pressure
PRES
in
5-day plot - Pressure Tendency
PTDY
in
5-day plot - Air Temperature
ATMP
°F
5-day plot - Water Temperature
WTMP
°F
5-day plot - Dew Point
DEWP
°F
5-day plot - Salinity
SAL
psu
5-day plot - Visibility
VIS
nmi
5-day plot - Tide (above MLLW)
TIDE
ft
2024-04-16 05:24 am S 4.1 5.1----30.12- 65.7- 58.6- 5.9-
2024-04-16 05:18 amSSW 4.1 5.1----30.11- 65.7- 58.3- 5.9-
2024-04-16 05:12 amSSW 2.9 6.0----30.11- 66.0- 58.1- 5.9-
2024-04-16 05:06 am S 2.9 4.1----30.11- 65.7- 57.9- 5.9-
2024-04-16 05:00 am S 1.9 2.9----30.11-0.01 65.3- 57.6- 5.9-
2024-04-16 04:54 am S 1.9 4.1----30.11- 65.1- 57.2- 5.9-
2024-04-16 04:48 am S 2.9 4.1----30.11- 64.9- 57.4- 5.9-
2024-04-16 04:42 amSSW 2.9 4.1----30.11- 65.3- 58.3- 5.9-
2024-04-16 04:36 amSSW 2.9 4.1----30.11- 65.5- 58.1- 5.9-
2024-04-16 04:30 am S 2.9 2.9----30.11- 65.7- 58.1- 5.9-
2024-04-16 04:24 am S 2.9 2.9----30.12- 66.0- 58.1- 5.9-
2024-04-16 04:18 amSSW 2.9 4.1----30.12- 66.2- 57.9- 5.9-
2024-04-16 04:12 am SW 4.1 4.1----30.12- 66.7- 58.3- 5.9-
2024-04-16 04:06 amSSW 4.1 5.1----30.12- 66.7- 58.1- 5.9-
2024-04-16 04:00 amSSW 4.1 5.1----30.12+0.00 67.1- 58.1- 5.9-
2024-04-16 03:54 amSSW 4.1 5.1----30.12- 67.6- 58.3- 5.9-
2024-04-16 03:48 am SW 2.9 4.1----30.11- 67.1- 57.7- 5.9-
2024-04-16 03:42 amSSW 1.9 2.9----30.11- 66.7- 57.2- 5.9-
2024-04-16 03:36 am- 0.0 1.9----30.11- 66.7- 57.4- 5.9-
2024-04-16 03:30 amSSW 1.9 2.9----30.12- 66.7- 57.2- 5.9-
2024-04-16 03:24 am SW 1.9 2.9----30.11- 67.1- 57.2- 5.9-
2024-04-16 03:18 amSSW 1.9 2.9----30.11- 67.3- 57.0- 5.9-
2024-04-16 03:12 amSSW 1.9 4.1----30.11- 67.1- 56.7- 5.9-
2024-04-16 03:06 am S 4.1 5.1----30.11- 67.3- 56.8- 5.9-
2024-04-16 03:00 am S 4.1 5.1----30.12+0.00 67.1- 56.5- 5.9-
2024-04-16 02:54 am S 2.9 5.1----30.12- 67.1- 56.7- 5.9-
2024-04-16 02:48 amSSE 4.1 5.1----30.12- 67.1- 56.7- 5.9-
2024-04-16 02:42 am S 5.1 5.1----30.11- 66.7- 56.1- 5.9-
2024-04-16 02:36 am S 4.1 5.1----30.11- 66.7- 55.9- 5.9-
2024-04-16 02:30 am S 4.1 7.0----30.12- 66.9- 56.5- 5.9-
2024-04-16 02:24 am S 4.1 6.0----30.11- 67.1- 57.2- 5.9-
2024-04-16 02:18 amSSW 4.1 6.0----30.12- 67.5- 57.4- 5.9-
2024-04-16 02:12 amSSW 5.1 6.0----30.12- 67.6- 56.8- 5.9-
2024-04-16 02:06 amSSW 5.1 6.0----30.12- 68.2- 56.7- 5.9-
2024-04-16 02:00 amSSW 4.1 6.0----30.12+0.00 68.5- 56.1- 5.9-
2024-04-16 01:54 amSSW 5.1 5.1----30.12- 68.9- 55.9- 5.9-
2024-04-16 01:48 amSSW 6.0 7.0----30.12- 69.3- 55.8- 5.9-
2024-04-16 01:42 am SW 5.1 7.0----30.12- 69.6- 56.5- 5.9-
2024-04-16 01:36 am SW 7.0 8.9----30.12- 70.0- 55.8- 5.9-
2024-04-16 01:30 amSSW 6.0 8.9----30.12- 69.6- 55.2- 5.9-
2024-04-16 01:24 amSSW 7.0 8.0----30.12- 69.4- 55.2- 5.9-
2024-04-16 01:18 amSSW 6.0 8.9----30.12- 68.9- 55.6- 5.9-
2024-04-16 01:12 amSSW 7.0 8.0----30.12- 68.9- 55.6- 5.9-
2024-04-16 01:06 amSSW 7.0 8.9----30.12- 69.1- 55.6- 5.9-
2024-04-16 01:00 amSSW 8.0 8.9----30.12+0.00 69.3- 55.0- 5.9-
2024-04-16 12:54 amSSW 7.0 8.0----30.12- 68.9- 54.5- 5.9-
2024-04-16 12:48 amSSW 7.0 11.1----30.12- 69.4- 55.2- 5.9-
2024-04-16 12:42 amSSW 7.0 8.0----30.13- 68.9- 55.4- 5.9-
2024-04-16 12:36 amSSW 7.0 8.9----30.12- 69.1- 55.6- 5.9-
2024-04-16 12:30 am S 5.1 7.0----30.12- 68.9- 55.8- 5.9-
2024-04-16 12:24 amSSW 5.1 6.0----30.12- 68.9- 55.9- 5.9-
2024-04-16 12:18 amSSW 5.1 6.0----30.12- 68.5- 56.1- 5.9-
2024-04-16 12:12 amSSW 5.1 6.0----30.12- 68.9- 56.3- 5.9-
2024-04-16 12:06 amSSW 6.0 7.0----30.12- 69.3- 55.8- 5.9-
2024-04-16 12:00 amSSW 6.0 8.0----30.12+0.02 69.6- 55.9- 5.9-
2024-04-15 11:54 pmSSW 6.0 7.0----30.12- 69.3- 55.8- 5.9-
2024-04-15 11:48 pmSSW 6.0 7.0----30.13- 69.1- 55.2- 5.9-
2024-04-15 11:42 pmSSW 6.0 7.0----30.13- 69.4- 56.3- 5.9-
2024-04-15 11:36 pm SW 5.1 6.0----30.13- 69.1- 55.2- 5.9-
2024-04-15 11:30 pmSSW 2.9 4.1----30.12- 69.1- 55.2- 5.9-
2024-04-15 11:24 pmSSW 2.9 4.1----30.13- 69.3- 55.2- 5.9-
2024-04-15 11:18 pmSSW 4.1 5.1----30.13- 69.4- 55.2- 5.9-
2024-04-15 11:12 pmSSW 4.1 5.1----30.13- 69.4- 55.6- 5.9-
2024-04-15 11:06 pmSSW 5.1 6.0----30.13- 69.4- 55.6- 5.9-
2024-04-15 11:00 pmSSW 5.1 7.0----30.12+0.04 69.6- 55.4- 5.9-
2024-04-15 10:54 pmSSW 6.0 6.0----30.12- 70.0- 55.8- 5.9-
2024-04-15 10:48 pmSSW 5.1 6.0----30.12- 70.2- 54.9- 5.9-
2024-04-15 10:42 pm S 5.1 6.0----30.12- 70.3- 54.9- 5.9-
2024-04-15 10:36 pm S 4.1 6.0----30.12- 70.5- 54.7- 5.9-
2024-04-15 10:30 pm S 5.1 7.0----30.12----- 5.9-
2024-04-15 10:24 pm S 5.1 7.0----30.12----- 5.9-
2024-04-15 10:18 pm S 6.0 8.0----30.12- 70.9- 54.3- 5.9-
2024-04-15 10:12 pm S 7.0 8.9----30.12- 70.9- 54.0- 5.9-
2024-04-15 10:06 pmSSW 5.1 6.0----30.11- 71.1- 54.5- 5.9-
2024-04-15 10:00 pm S 5.1 7.0----30.11+0.04 70.9- 54.5- 5.9-
2024-04-15 09:54 pm S 6.0 7.0----30.11- 71.1- 53.8- 5.9-
2024-04-15 09:48 pm S 6.0 7.0----30.11- 71.4- 53.2- 5.9-
2024-04-15 09:42 pm S 6.0 7.0----30.11- 71.4- 53.2- 5.9-
2024-04-15 09:36 pm S 6.0 7.0----30.11- 71.4- 53.2- 5.9-
2024-04-15 09:30 pm S 5.1 6.0----30.11- 71.6- 52.7- 5.9-
2024-04-15 09:24 pm S 6.0 7.0----30.11- 72.1- 52.3- 5.9-
2024-04-15 09:18 pm S 5.1 6.0----30.11- 72.3- 52.0- 5.9-
2024-04-15 09:12 pm S 4.1 5.1----30.11- 72.9- 52.2- 5.9-
2024-04-15 09:06 pm S 5.1 5.1----30.11- 73.0- 51.6- 5.9-
2024-04-15 09:00 pm S 4.1 6.0----30.11+0.03---- 5.9-
2024-04-15 08:54 pm S 4.1 5.1----30.11----- 5.9-
2024-04-15 08:48 pmSSE 4.1 6.0----30.10- 73.6- 51.6- 5.9-
2024-04-15 08:42 pm S 4.1 6.0----30.10- 73.8- 52.2- 5.9-
2024-04-15 08:36 pm S 4.1 6.0----30.10- 73.8- 52.2- 5.9-
2024-04-15 08:30 pm S 4.1 7.0----30.10- 73.9- 52.0- 5.9-
2024-04-15 08:24 pm S 5.1 6.0----30.09- 74.1- 51.6- 5.9-
2024-04-15 08:18 pmSSE 5.1 8.0----30.09----- 5.9-
2024-04-15 08:12 pm S 6.0 8.9----30.09----- 5.9-
2024-04-15 08:06 pm S 6.0 8.0----30.09----- 5.9-
2024-04-15 08:00 pm S 6.0 8.9----30.09+0.00 74.8- 52.0- 5.9-
2024-04-15 07:54 pmSSE 8.9 11.1----30.09- 75.2- 50.9- 5.9-
2024-04-15 07:48 pmSSE 7.0 9.9----30.08- 75.4- 51.3- 5.9-
2024-04-15 07:42 pmSSE 6.0 8.9----30.08- 75.6- 51.1- 5.9-
2024-04-15 07:36 pmSSE 8.0 11.1----30.08- 75.7- 52.2- 5.9-
2024-04-15 07:30 pmSSE 7.0 9.9----30.08- 75.9- 52.2- 5.9-
2024-04-15 07:24 pm SE 6.0 8.9----30.08- 76.3- 51.6- 5.9-
2024-04-15 07:18 pmSSE 6.0 9.9----30.08- 76.5- 54.3- 5.9-
2024-04-15 07:00 pm SE 11.1 13.0----30.07-0.01 76.8- 53.2- 5.9-
2024-04-15 06:54 pm SE 12.0 13.0----30.07- 77.0- 53.2- 5.9-
2024-04-15 06:48 pm SE 8.9 12.0----30.07- 77.4- 54.1- 5.9-
2024-04-15 06:42 pm SE 8.9 12.0----30.07- 77.9- 54.1- 5.9-
2024-04-15 06:36 pm SE 8.9 13.0----30.07- 77.9- 54.0- 5.9-
2024-04-15 06:30 pm SE 11.1 13.0----30.07----- 5.9-
2024-04-15 06:24 pm SE 11.1 13.0----30.07----- 5.9-
2024-04-15 06:18 pm SE 8.0 12.0----30.07- 78.4- 55.6- 5.9-
2024-04-15 06:12 pm SE 8.0 13.0----30.08- 78.6- 57.2- 5.9-
2024-04-15 06:06 pm SE 9.9 12.0----30.07- 78.8- 55.6- 5.9-
2024-04-15 06:00 pm SE 8.9 12.0----30.07-0.03 79.2- 56.1- 5.9-
2024-04-15 05:54 pm SE 8.9 13.0----30.07- 79.2- 56.5- 5.9-
2024-04-15 05:48 pmESE 8.9 11.1----30.07- 79.5- 57.9- 5.9-
2024-04-15 05:42 pm SE 8.9 12.0----30.08- 79.7- 57.2- 5.9-
2024-04-15 05:36 pm SE 9.9 12.0----30.08- 79.5- 56.5- 5.9-
2024-04-15 05:30 pm SE 8.0 11.1----30.08- 79.7- 57.2- 5.9-
2024-04-15 05:24 pmESE 8.0 9.9----30.08- 79.7- 59.5- 5.9-
2024-04-15 05:18 pmESE 8.0 12.0------ 80.2- 57.7- 5.9-
2024-04-15 05:12 pmESE 8.0 11.1------ 80.2- 57.0- 5.9-
2024-04-15 05:06 pm E 8.9 11.1------ 80.2- 56.8- 5.9-
2024-04-15 05:00 pm E 8.0 9.9----30.08-0.04 79.5- 59.2- 5.9-
2024-04-15 04:54 pm E 8.0 11.1----30.08- 79.9- 58.8- 5.9-
2024-04-15 04:48 pm E 8.0 11.1----30.08- 80.4- 58.6- 5.9-
2024-04-15 04:42 pm E 6.0 9.9----30.09- 80.8- 58.6- 5.9-
2024-04-15 04:36 pm E 8.0 11.1----30.08- 79.9- 58.8- 5.9-
2024-04-15 04:30 pm E 8.9 11.1----30.08- 80.4- 59.0- 5.9-
2024-04-15 04:24 pmESE 8.0 9.9----30.08- 79.7- 58.8- 5.9-
2024-04-15 04:18 pm E 9.9 12.0----30.09- 80.1- 57.2- 5.9-
2024-04-15 04:12 pmESE 8.0 12.0----30.09- 80.1- 57.4- 5.9-
2024-04-15 04:06 pm E 8.9 12.0----30.09- 80.4- 57.9- 5.9-
2024-04-15 04:00 pmESE 8.9 12.0----30.09-0.05 80.4- 58.3- 5.9-
2024-04-15 03:54 pm E 8.9 11.1----30.09- 80.4- 57.6- 5.9-
2024-04-15 03:48 pm E 8.9 12.0----30.09- 80.1- 59.0- 5.9-
2024-04-15 03:42 pm E 8.9 9.9----30.09- 80.8- 59.4- 5.9-
2024-04-15 03:36 pm E 8.9 13.0----30.10- 80.2- 59.7- 5.9-
2024-04-15 03:30 pm E 9.9 12.0----30.10- 80.6- 59.7- 5.9-
2024-04-15 03:24 pm E 8.9 12.0----30.10- 80.8- 59.9- 5.9-
2024-04-15 03:18 pm E 8.9 12.0----30.10- 81.5- 59.4- 5.9-
2024-04-15 03:12 pm E 7.0 11.1----30.10- 81.1- 60.1- 5.9-
2024-04-15 03:06 pm E 8.9 12.0----30.10- 81.0- 58.5- 5.9-
2024-04-15 03:00 pm E 7.0 8.9----30.10-0.05 82.0- 58.1- 5.9-
2024-04-15 02:54 pm E 1.9 5.1----30.11- 83.3- 57.4- 5.9-
2024-04-15 02:48 pm W 2.9 5.1----30.11- 83.8- 52.7- 5.9-
2024-04-15 02:42 pmWSW 4.1 5.1----30.11- 83.3- 53.6- 5.9-
2024-04-15 02:36 pm SW 2.9 2.9----30.11- 83.5- 54.3- 5.9-
2024-04-15 02:30 pm SW 1.0 1.9----30.11- 84.9- 54.3- 5.9-
2024-04-15 02:24 pm SW 1.9 2.9----30.11- 82.8- 54.1- 5.9-
2024-04-15 02:18 pm SW 2.9 4.1----30.11- 82.8- 54.3- 5.9-
2024-04-15 02:12 pmWSW 4.1 6.0----30.12- 81.9- 52.9- 5.9-
2024-04-15 02:06 pm SW 2.9 5.1----30.12- 82.2- 53.1- 5.9-
2024-04-15 02:00 pm SW 2.9 5.1----30.12-0.04 82.0- 52.0- 5.9-
2024-04-15 01:54 pmWSW 5.1 6.0----30.12- 81.7- 52.3- 5.9-
2024-04-15 01:48 pm SW 4.1 7.0----30.12- 82.0- 53.1- 5.9-
2024-04-15 01:42 pmWSW 4.1 5.1----30.12- 80.8- 54.1- 5.9-
2024-04-15 01:36 pmWSW 2.9 4.1----30.12- 81.7- 52.3- 5.9-
2024-04-15 01:30 pm SW 2.9 4.1----30.13- 80.6- 53.1- 5.9-
2024-04-15 01:24 pm SW 4.1 4.1----30.13- 79.9- 52.5- 5.9-
2024-04-15 01:18 pm SW 4.1 5.1----30.13- 79.5- 54.1- 5.9-
2024-04-15 01:12 pmWSW 2.9 5.1----30.13- 80.1- 53.8- 5.9-
2024-04-15 01:06 pmWSW 2.9 5.1----30.13- 81.0- 54.0- 5.9-
2024-04-15 01:00 pm SW 4.1 5.1----30.14-0.02 79.9- 51.3- 5.9-
2024-04-15 12:54 pm SW 5.1 5.1----30.14- 79.2- 51.4- 5.9-
2024-04-15 12:48 pm SW 4.1 6.0----30.14- 79.5- 52.5- 5.9-
2024-04-15 12:42 pm SW 5.1 6.0----30.14- 78.8- 50.9- 5.9-
2024-04-15 12:36 pm W 2.9 6.0----30.14- 79.5- 51.4- 5.9-
2024-04-15 12:30 pm SW 5.1 6.0----30.14- 78.3- 50.5- 5.9-
2024-04-15 12:24 pm SW 6.0 7.0----30.14- 77.2- 52.3- 5.9-
2024-04-15 12:18 pm SW 6.0 7.0----30.14- 76.8- 53.1- 5.9-
2024-04-15 12:12 pm SW 6.0 7.0----30.14- 76.5- 51.8- 5.9-
2024-04-15 12:06 pm SW 6.0 7.0----30.15- 76.1- 54.1- 5.9-
2024-04-15 12:00 pm SW 6.0 7.0----30.15+0.00 76.1- 52.7- 5.9-
2024-04-15 11:54 am SW 5.1 6.0----30.15- 75.7- 56.3- 5.9-
2024-04-15 11:48 am SW 5.1 5.1----30.15- 76.1- 53.4- 5.9-
2024-04-15 11:42 am SW 5.1 5.1----30.16- 76.1- 54.3- 5.9-
2024-04-15 11:36 amWSW 5.1 5.1----30.16- 76.3- 55.9- 5.9-
2024-04-15 11:30 amWSW 2.9 5.1----30.16- 76.3- 53.4- 5.9-
2024-04-15 11:24 am SW 4.1 5.1----30.16- 75.9- 54.7- 5.9-
2024-04-15 11:18 am SW 4.1 4.1----30.16- 75.6- 54.1- 5.9-
2024-04-15 11:12 am SW 1.9 4.1----30.16- 76.6- 53.8- 5.9-
2024-04-15 11:06 am SW 2.9 4.1----30.16- 75.4- 54.7- 5.9-
2024-04-15 11:00 am SW 2.9 5.1----30.16+0.03 74.8- 54.0- 5.9-
2024-04-15 10:54 am SW 2.9 4.1----30.16- 74.3- 54.9- 5.9-
2024-04-15 10:48 am SW 4.1 5.1----30.16- 74.1- 54.5- 5.9-
2024-04-15 10:42 am SW 2.9 5.1----30.16- 74.1- 53.8- 5.9-
2024-04-15 10:36 am SW 2.9 5.1----30.16- 73.8- 55.0- 5.9-
2024-04-15 10:30 amSSW 1.9 4.1----30.16----- 5.9-
2024-04-15 10:24 am SW 2.9 5.1----30.16----- 5.9-
2024-04-15 10:18 am SW 4.1 5.1----30.16- 73.4- 55.4- 5.9-
2024-04-15 10:12 am SW 2.9 4.1----30.15- 73.4- 55.0- 5.9-
2024-04-15 10:06 am SW 2.9 5.1----30.15- 72.9- 55.0- 5.9-
2024-04-15 10:00 amWSW 4.1 5.1----30.15+0.04 72.7- 54.3- 5.9-
2024-04-15 09:54 am NW 2.9 4.1----30.15- 74.1- 50.4- 5.9-
2024-04-15 09:48 amNNW 2.9 5.1----30.15- 73.9- 50.4- 5.9-
2024-04-15 09:42 am NW 4.1 6.0----30.15- 73.0- 50.0- 5.9-
2024-04-15 09:36 amWNW 4.1 5.1----30.15- 73.0- 51.1- 5.9-
2024-04-15 09:30 am NW 2.9 5.1----30.15- 72.9- 51.4- 5.9-
2024-04-15 09:24 am W 2.9 5.1----30.14- 71.4- 53.2- 4.3-
2024-04-15 09:18 am SW 5.1 5.1----30.14- 70.5- 56.7- 5.9-
2024-04-15 09:12 amWSW 2.9 5.1----30.14- 71.4- 55.2- 5.9-
2024-04-15 09:06 amWSW 4.1 5.1----30.14- 70.0- 55.4- 5.9-
2024-04-15 09:00 am SW 2.9 4.1----30.14+0.06 69.4- 56.5- 5.9-
2024-04-15 08:54 am SW 4.1 5.1----30.14- 69.1- 56.5- 5.9-
2024-04-15 08:48 amWSW 4.1 5.1----30.14- 68.5- 56.1- 5.9-
2024-04-15 08:42 am SW 5.1 5.1----30.14- 68.2- 57.6- 5.9-
2024-04-15 08:36 amSSW 2.9 4.1----30.14- 68.0- 59.2- 5.9-
2024-04-15 08:30 amSSW 2.9 4.1----30.14- 67.6- 59.0- 5.9-
2024-04-15 08:24 amSSW 4.1 5.1----30.14- 67.3- 59.4- 5.9-
2024-04-15 08:18 am SW 2.9 4.1----30.13- 67.1- 59.4- 5.9-
2024-04-15 08:12 amSSW 2.9 5.1----30.14- 67.3- 59.0- 5.9-
2024-04-15 08:06 amSSW 5.1 5.1----30.13- 67.1- 59.2- 5.9-
2024-04-15 08:00 amSSW 2.9 4.1----30.13+0.06 66.6- 58.8- 5.9-
2024-04-15 07:54 amSSW 4.1 4.1----30.13- 66.2- 59.0- 5.9-
2024-04-15 07:48 amSSW 4.1 5.1----30.13- 66.0- 58.5- 5.9-
2024-04-15 07:42 amSSW 2.9 5.1----30.13- 65.5- 58.1- 5.9-
2024-04-15 07:36 am S 5.1 7.0----30.12- 65.7- 57.9- 5.9-
2024-04-15 07:30 amSSW 2.9 2.9----30.12- 65.5- 58.5- 5.9-
2024-04-15 07:24 am SW 1.9 1.9----30.12- 65.1- 58.1- 5.9-
2024-04-15 07:18 am S 1.9 1.9----30.12- 65.1- 57.9- 5.9-
2024-04-15 07:12 am S 1.0 1.9----30.12- 65.5- 58.1- 5.9-
2024-04-15 07:06 am S 1.9 2.9----30.11- 65.8- 58.3- 5.9-
2024-04-15 07:00 amSSW 2.9 2.9----30.11+0.04 65.7- 58.3- 5.9-
2024-04-15 06:54 am SW 2.9 4.1----30.10- 66.0- 58.6- 5.9-
2024-04-15 06:48 am SW 2.9 4.1----30.10- 66.0- 58.1- 5.9-
2024-04-15 06:42 am SW 1.9 2.9----30.10- 65.8- 57.7- 5.9-
2024-04-15 06:36 am SW 1.9 4.1----30.10- 66.2- 58.1- 5.9-
2024-04-15 06:30 am SW 2.9 5.1----30.09- 66.2- 57.7- 5.9-
2024-04-15 06:24 am SW 2.9 5.1----30.09- 66.4- 58.1- 5.9-
2024-04-15 06:18 am SW 2.9 4.1----30.09- 66.6- 58.1- 5.9-
2024-04-15 06:12 am SW 4.1 6.0----30.09- 66.7- 57.9- 5.9-
2024-04-15 06:06 amSSW 6.0 6.0----30.08- 66.7- 57.6- 5.9-
2024-04-15 06:00 am SW 5.1 6.0----30.09+0.00 67.1- 57.4- 5.9-
2024-04-15 05:54 amSSW 5.1 5.1----30.08- 67.1- 56.8- 5.9-